CW9454 Weather Reports


Display with metric or nautical units.
time (UTC)temp
F
wind
direction
speed
MPH
gust
MPH
rain 1hr
in
rain 24hr
in
rain mn
in
humidity
%
barometer
mb
20260905141037 78 322 0.0 0.0 0.00 0.00 0.00 79 1012.2
20260905140015 77 322 0.0 0.0 0.00 0.00 0.00 80 1012.2
20260905135039 77 322 0.0 0.0 0.00 0.00 0.00 80 1012.1
20260905134023 77 322 0.0 0.0 0.00 0.00 0.00 81 1012.1
20260905133017 76 322 0.0 0.0 0.00 0.00 0.00 82 1012.3
20260905132031 76 322 0.0 0.0 0.00 0.00 0.00 81 1012.1
20260905131026 76 322 0.0 0.0 0.00 0.00 0.00 82 1012.0
20260905130032 76 322 0.0 0.0 0.00 0.00 0.00 83 1012.0
20260905125045 76 322 0.0 0.0 0.00 0.00 0.00 84 1011.8
20260905124018 75 322 0.0 2.0 0.00 0.00 0.00 84 1011.9
20260905123014 75 321 0.0 3.0 0.00 0.00 0.00 85 1011.9
20260905122027 75 44 0.0 1.0 0.00 0.00 0.00 86 1011.9
20260905121023 75 71 0.0 5.0 0.00 0.00 0.00 88 1011.9
20260905120031 75 325 0.0 1.0 0.00 0.00 0.00 89 1011.5
20260905115025 75 331 0.0 5.0 0.00 0.00 0.00 89 1011.6
20260905114040 75 338 0.0 0.0 0.00 0.00 0.00 89 1011.6
20260905113024 75 338 0.0 3.0 0.00 0.00 0.00 89 1011.4
20260905112017 75 341 0.0 2.0 0.00 0.00 0.00 90 1011.6
20260905111031 75 321 0.0 1.0 0.00 0.00 0.00 90 1011.2
20260905110019 75 320 0.0 3.0 0.00 0.00 0.00 90 1011.3
20260905105014 75 320 0.0 0.0 0.00 0.01 0.00 90 1011.3
20260905104025 75 320 0.0 1.0 0.00 0.01 0.00 90 1010.9
20260905103039 75 320 0.0 6.0 0.00 0.01 0.00 90 1010.9
20260905102031 75 306 0.0 3.0 0.00 0.01 0.00 90 1010.9
20260905101025 75 280 0.0 2.0 0.00 0.01 0.00 90 1010.8
20260905100014 75 279 0.0 1.0 0.00 0.01 0.00 90 1010.6
20260905095026 75 279 0.0 0.0 0.00 0.01 0.00 89 1010.7
20260905094021 75 279 0.0 0.0 0.00 0.01 0.00 89 1010.6
20260905093035 75 279 0.0 0.0 0.00 0.01 0.00 89 1010.4
20260905092020 75 279 0.0 0.0 0.00 0.01 0.00 89 1010.6
20260905091013 75 279 0.0 0.0 0.00 0.01 0.00 88 1010.4
20260905090049 75 279 0.0 0.0 0.00 0.01 0.00 88 1010.5
20260905085022 75 279 0.0 0.0 0.00 0.01 0.00 88 1010.6
20260905084035 75 279 0.0 3.0 0.00 0.01 0.00 88 1010.5
20260905083020 76 280 0.0 2.0 0.00 0.01 0.00 88 1010.5
20260905082014 76 280 0.0 0.0 0.00 0.01 0.00 88 1010.6
20260905081029 76 280 0.0 0.0 0.00 0.01 0.00 87 1010.7
20260905080035 76 280 0.0 0.0 0.00 0.01 0.00 87 1010.7
20260905075037 76 280 0.0 4.0 0.00 0.01 0.00 87 1010.7
20260905074023 76 288 0.0 4.0 0.00 0.01 0.00 87 1010.7
20260905073017 76 278 0.0 4.0 0.00 0.01 0.00 87 1010.7
20260905072102 76 271 1.0 7.0 0.00 0.01 0.00 88 1010.8
20260905071023 76 262 1.0 8.0 0.00 0.01 0.00 88 1010.9
20260905070027 76 267 1.0 6.0 0.00 0.01 0.00 88 1010.9
20260905065021 76 229 2.0 7.0 0.00 0.01 0.00 88 1011.1
20260905064016 76 274 1.0 4.0 0.00 0.01 0.00 88 1011.1
20260905063029 76 259 1.0 7.0 0.00 0.01 0.00 88 1011.1
20260905062024 76 244 1.0 5.0 0.00 0.01 0.00 89 1011.3
20260905061036 76 248 1.0 7.0 0.00 0.01 0.00 89 1011.2
20260905060042 76 248 1.0 7.0 0.00 0.01 0.00 89 1011.3
20260905055014 76 248 0.0 5.0 0.00 0.01 0.00 89 1011.2
20260905054027 77 245 1.0 7.0 0.00 0.01 0.00 89 1011.3
20260905053022 77 248 1.0 4.0 0.00 0.01 0.00 89 1011.5
20260905052037 77 269 0.0 3.0 0.00 0.01 0.00 89 1011.5
20260905051053 77 277 0.0 4.0 0.00 0.01 0.00 89 1011.7
20260905050019 77 250 0.0 5.0 0.00 0.01 0.00 89 1011.9
20260905045013 77 251 1.0 6.0 0.00 0.06 0.00 89 1011.9
20260905044027 77 250 0.0 3.0 0.00 0.06 0.00 89 1011.9
20260905043040 78 250 0.0 3.0 0.00 0.06 0.00 88 1011.9
20260905042027 78 250 0.0 2.0 0.00 0.06 0.00 88 1011.8
20260905041021 78 250 0.0 0.0 0.00 0.06 0.00 88 1011.8
20260905040029 78 250 0.0 3.0 0.00 0.06 0.00 88 1012.0
20260905035023 78 250 0.0 3.0 0.00 0.06 0.06 88 1012.0
20260905034016 78 250 1.0 3.0 0.00 0.06 0.06 88 1012.2
20260905033029 78 250 0.0 3.0 0.00 0.06 0.06 88 1012.1
20260905032025 78 250 0.0 2.0 0.00 0.06 0.06 88 1012.1
20260905031040 79 250 0.0 1.0 0.00 0.06 0.06 87 1012.1
20260905030027 79 250 0.0 0.0 0.00 0.06 0.06 87 1012.2
20260905025024 79 250 0.0 3.0 0.00 0.06 0.06 87 1012.1
20260905024041 79 250 0.0 2.0 0.00 0.06 0.06 87 1012.2
20260905023026 79 250 0.0 0.0 0.00 0.06 0.06 86 1012.1
20260905022036 79 250 0.0 0.0 0.00 0.06 0.06 86 1011.9
20260905021039 79 250 0.0 0.0 0.00 0.06 0.06 85 1012.0
20260905020016 79 250 0.0 1.0 0.00 0.06 0.06 84 1012.0
20260905015041 79 250 0.0 1.0 0.00 0.06 0.06 84 1012.0
20260905014054 79 250 0.0 0.0 0.00 0.06 0.06 83 1011.9
20260905013018 79 250 0.0 0.0 0.00 0.06 0.06 83 1011.8
20260905012033 80 250 0.0 0.0 0.00 0.06 0.06 83 1011.7
20260905011029 80 250 0.0 0.0 0.00 0.06 0.06 83 1011.5
20260905010106 80 250 0.0 0.0 0.00 0.06 0.06 83 1011.5
20260905005037 80 250 0.0 0.0 0.00 0.06 0.06 82 1011.4
20260905004053 81 250 0.0 0.0 0.00 0.06 0.06 82 1011.4
20260905003047 81 250 0.0 0.0 0.00 0.06 0.06 81 1011.5
20260905002022 81 250 0.0 0.0 0.00 0.06 0.06 80 1011.6
20260905001035 82 250 0.0 0.0 0.00 0.06 0.06 79 1011.3
20260905000022 82 250 0.0 0.0 0.00 0.06 0.06 79 1011.3
20260904235036 82 250 0.0 0.0 0.00 0.06 0.06 78 1011.3
20260904234021 83 250 0.0 0.0 0.00 0.06 0.06 77 1011.3
20260904233015 83 250 0.0 0.0 0.00 0.06 0.06 76 1011.4
20260904232029 84 250 0.0 0.0 0.00 0.06 0.06 75 1011.5
20260904231024 84 250 0.0 0.0 0.00 0.06 0.06 75 1011.6
20260904230032 84 250 0.0 0.0 0.00 0.06 0.06 74 1011.5
20260904225043 85 250 0.0 0.0 0.00 0.06 0.06 73 1011.4
20260904224017 85 250 0.0 0.0 0.00 0.06 0.06 73 1011.3
20260904223032 85 250 0.0 0.0 0.00 0.06 0.06 72 1011.4
20260904222028 85 250 0.0 0.0 0.00 0.06 0.06 69 1011.6
20260904221023 86 250 0.0 1.0 0.00 0.06 0.06 68 1011.8
20260904220031 86 250 0.0 5.0 0.00 0.06 0.06 68 1012.1
20260904215026 86 250 0.0 3.0 0.00 0.06 0.06 68 1012.1
20260904214041 86 263 0.0 5.0 0.00 0.06 0.06 67 1011.9
20260904213023 87 247 0.0 1.0 0.00 0.06 0.06 67 1012.1
20260904212045 87 246 0.0 4.0 0.00 0.06 0.06 66 1012.0
20260904211038 88 250 0.0 2.0 0.00 0.06 0.06 65 1012.2
20260904210046 88 249 1.0 3.0 0.00 0.06 0.06 64 1012.1
20260904205019 88 254 1.0 5.0 0.00 0.06 0.06 63 1012.3
20260904204034 89 249 1.0 5.0 0.00 0.06 0.06 62 1012.5
20260904203025 89 300 1.0 8.0 0.00 0.06 0.06 61 1012.6
20260904202040 90 217 2.0 8.0 0.00 0.06 0.06 61 1012.6
20260904201055 90 259 3.0 8.0 0.00 0.06 0.06 60 1012.3
20260904200021 91 247 0.0 6.0 0.00 0.06 0.06 59 1012.0
20260904195035 91 242 1.0 7.0 0.00 0.06 0.06 59 1012.3
20260904194029 91 345 1.0 6.0 0.00 0.06 0.06 60 1012.3
20260904193043 91 243 3.0 8.0 0.00 0.06 0.06 60 1012.5
20260904192037 91 259 2.0 9.0 0.00 0.06 0.06 59 1012.5
20260904191023 91 274 0.0 7.0 0.00 0.06 0.06 59 1012.6
20260904190035 92 228 0.0 7.0 0.00 0.06 0.06 58 1012.8
20260904185020 92 223 3.0 10.0 0.00 0.06 0.06 57 1013.0
20260904184014 92 265 1.0 11.0 0.00 0.06 0.06 57 1013.1
20260904183028 92 224 1.0 6.0 0.00 0.06 0.06 57 1013.1
20260904182023 92 233 1.0 6.0 0.00 0.06 0.06 59 1013.2
20260904181016 91 320 0.0 5.0 0.00 0.06 0.06 60 1013.2
20260904180043 91 306 0.0 5.0 0.00 0.06 0.06 63 1013.1
20260904175015 90 305 0.0 7.0 0.00 0.06 0.06 62 1013.2
20260904174059 89 267 0.0 7.0 0.00 0.06 0.06 63 1013.3
20260904173023 88 283 0.0 8.0 0.00 0.06 0.06 65 1013.3
20260904172017 88 288 0.0 5.0 0.00 0.06 0.06 66 1013.5
20260904171030 87 284 1.0 5.0 0.00 0.06 0.06 65 1013.5
20260904170017 87 340 2.0 5.0 0.00 0.06 0.06 67 1013.6
20260904165031 86 327 1.0 6.0 0.00 0.06 0.06 68 1013.7
20260904164024 86 300 2.0 6.0 0.00 0.06 0.06 68 1013.8
20260904163017 86 254 2.0 7.0 0.00 0.06 0.06 68 1014.0
20260904162030 86 263 2.0 8.0 0.00 0.06 0.06 68 1014.2
20260904161018 87 277 0.0 8.0 0.00 0.06 0.06 67 1014.2
20260904160036 87 265 1.0 4.0 0.00 0.06 0.06 67 1014.1
20260904155028 87 242 1.0 5.0 0.00 0.06 0.06 66 1014.2
20260904154023 87 250 1.0 8.0 0.00 0.06 0.06 68 1014.4
20260904153038 86 270 1.0 5.0 0.00 0.06 0.06 71 1014.4
20260904152031 85 245 2.0 5.0 0.00 0.06 0.06 70 1014.4
20260904151016 85 331 0.0 5.0 0.00 0.06 0.06 73 1014.5
20260904150027 84 315 0.0 4.0 0.00 0.06 0.06 74 1014.3
20260904145042 82 309 0.0 5.0 0.00 0.06 0.06 76 1014.5
20260904144035 81 273 0.0 3.0 0.00 0.06 0.06 79 1014.5
20260904143028 79 281 0.0 5.0 0.00 0.06 0.06 83 1014.4
20260904142023 78 292 0.0 8.0 0.00 0.06 0.06 86 1014.5